Regional Weather Roundup
Issued by NWS

Home | Current Version | Previous Version | Graphics & Text | Print | Product List | Glossary On
Versions: 1 2 3 4 5 6 7 8 9 10 11 12 13 14 15 16 17 18 19 20 21 22 23 24 25 26 27 28 29 30 31 32 33 34 35 36 37 38 39 40 41 42 43 44 45 46 47 48 49 50
000
ASUS45 KCYS 301610
RWRWY

WYOMING REGIONAL WEATHER ROUNDUP
NATIONAL WEATHER SERVICE CHEYENNE WY
900 AM MST FRI JAN 30 2015

NOTE:  "FAIR" INDICATES FEW OR NO CLOUDS BELOW 12,000 FEET
WITH NO SIGNIFICANT WEATHER AND/OR OBSTRUCTIONS TO VISIBILITY.

WYZ001-301700-
YELLOWSTONE NATIONAL PARK

CITY           SKY/WX    TMP DP  RH WIND       PRES   REMARKS
LK YELLOWSTONE   N/A     -1  -4  87 CALM      30.26F
W YELLOWSTONE  NOT AVBL

$$
WYZ002>013-054>058-071-098>099-301700-
NORTHERN WYOMING

CITY           SKY/WX    TMP DP  RH WIND       PRES   REMARKS
JACKSON        SUNNY      9   7  92 N7        30.26F WCI  -3
CODY           FAIR      27  21  80 CALM      30.21S
GREYBULL       FOG       23  22  96 CALM      30.26R VSB<1/4
WORLAND        FAIR      19  17  92 VRB3      30.24R
SHERIDAN       FAIR      28  21  75 CALM      30.22S
BUFFALO        FAIR      34  12  40 CALM      30.21S
GILLETTE       FAIR      31  27  85 CALM      30.19S
HULETT           N/A    N/A N/A N/A MISG        N/A
NEWCASTLE      FAIR      30  27  86 NW5       30.20S WCI  25

$$
WYZ014>020-022>026-101>103-301700-
CENTRAL WYOMING

CITY           SKY/WX    TMP DP  RH WIND       PRES   REMARKS
BIG PINEY      FAIR      20  17  88 CALM      30.21S
PINEDALE       FAIR      14   9  79 NW9       30.20F WCI   2
DUBOIS         FAIR      19   3  49 NW12      30.19S WCI   7
LANDER         FAIR      27  19  72 W5        30.19F WCI  22
RIVERTON       FAIR      28  24  85 N3        30.21F
CASPER         FAIR      33  27  78 SW8       30.20F WCI  26
DOUGLAS        FAIR      29  25  85 CALM      30.21S

$$
WYZ021-027>030-104>119-301700-
SOUTHERN WYOMING

CITY           SKY/WX    TMP DP  RH WIND       PRES   REMARKS
EVANSTON       PTSUNNY   29  25  85 N7        30.16S WCI  22
KEMMERER       FAIR      27  21  80 N6        30.18S WCI  20
FORT BRIDGER   FAIR      29  28  96 CALM      30.21S
ROCK SPRINGS   FAIR      28  27  96 CALM      30.18F
DIXON          CLOUDY    35  32  90 CALM      30.21F
RAWLINS        CLOUDY    34  30  85 NE5       30.20F WCI  30
SARATOGA       CLOUDY    34  30  86 CALM      30.20F
LARAMIE        FAIR      30  24  78 N3        30.19F
CHEYENNE       FAIR      38  24  57 NW3       30.17F
TORRINGTON     FAIR      27  21  78 NW3       30.20S
PINE BLUFFS    FAIR      30  27  86 CALM      30.18F

$$



USA.gov is the U.S. government's official web portal to all federal, state and local government web resources and services.